N5FKU Weather Reports


Display with metric or nautical units.
time (UTC)temp
F
wind
direction
speed
MPH
gust
MPH
rain 1hr
in
rain 24hr
in
rain mn
in
humidity
%
barometer
mb
20230128154518 50 92 2.0 4.0 0.00 0.00 0.00 98 1020.3
20230128153519 50 115 2.0 5.0 0.00 0.00 0.00 97 1020.3
20230128152539 50 107 2.0 4.0 0.00 0.00 0.00 97 1020.2
20230128151519 50 104 2.0 6.0 0.00 0.00 0.00 97 1020.1
20230128150519 50 86 2.0 5.0 0.00 0.00 0.00 97 1020.1
20230128145519 50 93 2.0 5.0 0.00 0.00 0.00 95 1020.2
20230128144519 50 109 2.0 5.0 0.00 0.00 0.00 96 1020.1
20230128143520 50 91 2.0 6.0 0.00 0.00 0.00 95 1019.9
20230128142517 51 111 2.0 5.0 0.00 0.00 0.00 92 1019.8
20230128141517 51 93 2.0 7.0 0.00 0.00 0.00 91 1019.8
20230128140517 51 97 2.0 5.0 0.00 0.00 0.00 87 1019.9
20230128135517 51 79 2.0 7.0 0.00 0.00 0.00 86 1019.8
20230128134521 51 169 2.0 5.0 0.00 0.00 0.00 84 1019.7
20230128133518 51 100 2.0 5.0 0.00 0.00 0.00 83 1019.7
20230128132518 51 110 2.0 5.0 0.00 0.00 0.00 81 1019.7
20230128131518 51 85 2.0 3.0 0.00 0.00 0.00 81 1019.7
20230128130518 51 102 2.0 5.0 0.00 0.00 0.00 80 1019.7
20230128125518 51 118 2.0 9.0 0.00 0.00 0.00 79 1019.9
20230128124518 51 105 2.0 7.0 0.00 0.00 0.00 79 1019.8
20230128123519 51 123 2.0 6.0 0.00 0.00 0.00 77 1019.7
20230128122539 51 147 2.0 5.0 0.00 0.00 0.00 76 1019.7
20230128121517 51 113 2.0 7.0 0.00 0.00 0.00 76 1019.8
20230128120519 50 106 2.0 5.0 0.00 0.00 0.00 75 1019.7
20230128115519 50 101 1.0 4.0 0.00 0.00 0.00 74 1019.8
20230128114520 50 106 2.0 4.0 0.00 0.00 0.00 73 1019.8
20230128113520 50 87 2.0 4.0 0.00 0.00 0.00 73 1019.9
20230128112520 50 95 2.0 5.0 0.00 0.00 0.00 73 1020.0
20230128111517 50 82 1.0 3.0 0.00 0.00 0.00 74 1020.1
20230128110540 49 106 1.0 4.0 0.00 0.00 0.00 74 1020.2
20230128105521 49 120 1.0 5.0 0.00 0.00 0.00 74 1020.2
20230128104520 49 134 1.0 4.0 0.00 0.00 0.00 74 1020.3
20230128103521 49 94 1.0 4.0 0.00 0.00 0.00 74 1020.4
20230128102521 48 186 2.0 4.0 0.00 0.00 0.00 75 1020.3
20230128101518 48 111 1.0 4.0 0.00 0.00 0.00 75 1020.4
20230128100518 48 225 1.0 5.0 0.00 0.00 0.00 75 1020.5
20230128095538 48 183 1.0 5.0 0.00 0.00 0.00 75 1020.5
20230128094539 47 170 1.0 4.0 0.00 0.00 0.00 75 1020.5
20230128093521 47 202 1.0 4.0 0.00 0.00 0.00 75 1020.6
20230128092519 47 187 1.0 3.0 0.00 0.00 0.00 74 1020.6
20230128091519 47 208 1.0 4.0 0.00 0.00 0.00 74 1020.6
20230128090519 47 189 1.0 4.0 0.00 0.00 0.00 73 1020.7
20230128085539 48 172 1.0 4.0 0.00 0.00 0.00 72 1020.7
20230128084520 48 132 1.0 5.0 0.00 0.00 0.00 71 1020.7
20230128083520 48 138 2.0 4.0 0.00 0.00 0.00 71 1020.8
20230128082520 47 168 1.0 4.0 0.00 0.00 0.00 71 1020.9
20230128081517 47 172 1.0 4.0 0.00 0.00 0.00 71 1021.1
20230128080517 47 184 1.0 4.0 0.00 0.00 0.00 70 1021.1
20230128075517 47 170 1.0 3.0 0.00 0.00 0.00 70 1021.1
20230128074540 47 139 2.0 5.0 0.00 0.00 0.00 69 1021.0
20230128073521 47 150 1.0 3.0 0.00 0.00 0.00 67 1021.2
20230128072518 47 183 2.0 6.0 0.00 0.00 0.00 66 1021.1
20230128071518 47 175 2.0 5.0 0.00 0.00 0.00 66 1021.3
20230128070519 46 205 1.0 4.0 0.00 0.00 0.00 66 1021.4
20230128065559 46 236 1.0 5.0 0.00 0.00 0.00 65 1021.5
20230128064519 46 172 2.0 7.0 0.00 0.00 0.00 64 1021.6
20230128063519 46 186 2.0 6.0 0.00 0.00 0.00 64 1021.7
20230128062519 46 193 1.0 3.0 0.00 0.00 0.00 64 1021.8
20230128061519 46 153 2.0 4.0 0.00 0.00 0.00 63 1021.8
20230128060539 47 179 2.0 4.0 0.00 0.00 0.00 62 1022.0
20230128055520 47 163 2.0 4.0 0.00 0.00 0.00 61 1022.0
20230128054519 47 169 2.0 4.0 0.00 0.00 0.00 60 1022.1
20230128053520 47 165 1.0 4.0 0.00 0.00 0.00 59 1022.2
20230128052520 47 172 1.0 4.0 0.00 0.00 0.00 58 1022.2
20230128051520 47 183 1.0 5.0 0.00 0.00 0.00 57 1022.3
20230128050517 48 155 1.0 4.0 0.00 0.00 0.00 56 1022.4
20230128045517 48 138 2.0 5.0 0.00 0.00 0.00 55 1022.5
20230128044517 48 173 1.0 4.0 0.00 0.00 0.00 55 1022.6
20230128043517 48 139 2.0 5.0 0.00 0.00 0.00 54 1022.6
20230128042541 48 128 1.0 3.0 0.00 0.00 0.00 54 1022.6
20230128041521 48 176 1.0 4.0 0.00 0.00 0.00 54 1022.6
20230128040521 49 157 2.0 6.0 0.00 0.00 0.00 53 1022.6
20230128035541 49 127 2.0 5.0 0.00 0.00 0.00 53 1022.6
20230128034539 49 171 2.0 6.0 0.00 0.00 0.00 53 1022.7
20230128033518 49 110 2.0 4.0 0.00 0.00 0.00 52 1022.7
20230128032519 50 115 2.0 4.0 0.00 0.00 0.00 51 1022.7
20230128031539 50 140 2.0 4.0 0.00 0.00 0.00 50 1022.6
20230128030519 50 120 2.0 6.0 0.00 0.00 0.00 49 1022.6
20230128025519 51 126 2.0 9.0 0.00 0.00 0.00 47 1022.5
20230128024520 51 111 2.0 5.0 0.00 0.00 0.00 47 1022.5
20230128023516 51 139 2.0 7.0 0.00 0.00 0.00 46 1022.4
20230128022540 52 126 2.0 5.0 0.00 0.00 0.00 47 1022.3
20230128021540 52 85 2.0 5.0 0.00 0.00 0.00 47 1022.2
20230128020520 53 101 2.0 5.0 0.00 0.00 0.00 46 1022.1
20230128015526 53 110 2.0 7.0 0.00 0.00 0.00 46 1022.2
20230128014521 53 111 2.0 6.0 0.00 0.00 0.00 45 1022.2
20230128013518 53 185 2.0 6.0 0.00 0.00 0.00 45 1022.2
20230128012518 53 104 2.0 7.0 0.00 0.00 0.00 44 1022.1
20230128011518 54 102 2.0 5.0 0.00 0.00 0.00 43 1022.1
20230128010518 54 106 3.0 5.0 0.00 0.00 0.00 41 1022.1
20230128005521 54 101 2.0 5.0 0.00 0.00 0.00 38 1022.0
20230128004521 54 94 1.0 4.0 0.00 0.00 0.00 38 1021.9
20230128003519 55 97 1.0 3.0 0.00 0.00 0.00 38 1021.9
20230128002538 55 102 2.0 5.0 0.00 0.00 0.00 38 1021.9
20230128001519 56 130 2.0 6.0 0.00 0.00 0.00 38 1021.8
20230128000519 56 79 1.0 4.0 0.00 0.00 0.00 38 1021.9
20230127235519 57 97 2.0 6.0 0.00 0.00 0.00 38 1021.9
20230127234519 57 68 1.0 3.0 0.00 0.00 0.00 37 1022.0
20230127233520 58 119 2.0 7.0 0.00 0.00 0.00 36 1022.0
20230127232517 58 90 2.0 4.0 0.00 0.00 0.00 36 1022.0
20230127231620 59 113 2.0 6.0 0.00 0.00 0.00 35 1022.1
20230127230520 59 111 2.0 6.0 0.00 0.00 0.00 35 1022.0
20230127225521 60 100 2.0 5.0 0.00 0.00 0.00 35 1022.1
20230127224521 60 96 2.0 5.0 0.00 0.00 0.00 34 1022.1
20230127223541 62 105 2.0 5.0 0.00 0.00 0.00 34 1022.1
20230127222518 62 93 2.0 6.0 0.00 0.00 0.00 33 1022.1
20230127221518 63 99 2.0 5.0 0.00 0.00 0.00 33 1022.2
20230127220518 63 120 2.0 5.0 0.00 0.00 0.00 33 1022.2
20230127215518 63 89 2.0 4.0 0.00 0.00 0.00 32 1022.2
20230127214518 64 77 2.0 6.0 0.00 0.00 0.00 32 1022.3
20230127213601 63 72 2.0 6.0 0.00 0.00 0.00 32 1022.4
20230127212519 63 282 3.0 8.0 0.00 0.00 0.00 33 1022.4
20230127211539 63 327 2.0 6.0 0.00 0.00 0.00 33 1022.6
20230127210519 62 25 2.0 6.0 0.00 0.00 0.00 33 1022.6
20230127205519 62 303 3.0 9.0 0.00 0.00 0.00 34 1022.8
20230127204540 62 311 2.0 6.0 0.00 0.00 0.00 34 1022.8
20230127203519 62 265 3.0 7.0 0.00 0.00 0.00 35 1022.9
20230127202520 62 292 3.0 10.0 0.00 0.00 0.00 35 1023.0
20230127201517 61 300 3.0 8.0 0.00 0.00 0.00 35 1023.1
20230127200520 61 279 4.0 8.0 0.00 0.00 0.00 36 1023.3
20230127195520 61 290 3.0 12.0 0.00 0.00 0.00 36 1023.4
20230127194521 61 287 4.0 9.0 0.00 0.00 0.00 35 1023.6
20230127193521 60 323 3.0 7.0 0.00 0.00 0.00 35 1023.9
20230127192518 59 287 4.0 10.0 0.00 0.00 0.00 36 1024.2
20230127191518 59 276 3.0 9.0 0.00 0.00 0.00 35 1024.5
20230127190518 59 281 5.0 9.0 0.00 0.00 0.00 36 1024.8
20230127185519 59 277 4.0 10.0 0.00 0.00 0.00 36 1025.0
20230127184518 58 288 4.0 11.0 0.00 0.00 0.00 38 1025.2
20230127183539 58 289 4.0 8.0 0.00 0.00 0.00 37 1025.4
20230127182519 58 284 4.0 12.0 0.00 0.00 0.00 37 1025.7
20230127181519 58 281 3.0 7.0 0.00 0.00 0.00 38 1025.9
20230127180519 57 284 3.0 9.0 0.00 0.00 0.00 39 1026.0
20230127175603 57 286 3.0 7.0 0.00 0.00 0.00 39 1026.3
20230127174520 56 300 2.0 7.0 0.00 0.00 0.00 39 1026.5
20230127173540 55 277 3.0 6.0 0.00 0.00 0.00 40 1026.8
20230127172520 55 277 3.0 9.0 0.00 0.00 0.00 40 1027.0
20230127171537 55 260 3.0 8.0 0.00 0.00 0.00 41 1027.1
20230127170517 54 284 3.0 9.0 0.00 0.00 0.00 41 1027.3
20230127165520 53 282 3.0 7.0 0.00 0.00 0.00 42 1027.5
20230127164521 53 281 3.0 6.0 0.00 0.00 0.00 43 1027.6
20230127163521 52 259 2.0 6.0 0.00 0.00 0.00 45 1027.6
20230127162518 50 303 1.0 4.0 0.00 0.00 0.00 47 1027.7
20230127161518 50 210 2.0 6.0 0.00 0.00 0.00 47 1027.8
20230127160518 49 277 2.0 5.0 0.00 0.00 0.00 48 1027.8
20230127155519 48 261 2.0 7.0 0.00 0.00 0.00 49 1027.9